Regional Weather Roundup
Issued by NWS Charleston, SC

Current Version | Previous Version | Graphics & Text | Print | Product List | Glossary On
Versions: 1 2 3 4 5 6 7 8 9 10 11 12 13 14 15 16 17 18 19 20 21 22 23 24 25 26 27 28 29 30 31 32 33 34 35 36 37 38 39 40 41 42 43 44 45 46 47 48 49 50
000
ASUS42 KCHS 031126
RWRCHS

REGIONAL WEATHER ROUNDUP
NATIONAL WEATHER SERVICE CHARLESTON SC
600 AM EST TUE MAR 03 2015

NOTE: "FAIR" INDICATES FEW OR NO CLOUDS BELOW 12,000 FEET WITH NO
SIGNIFICANT WEATHER AND/OR OBSTRUCTIONS TO VISIBILITY.

NOT ALL STATIONS ARE QUALITY CONTROLLED BY THE NATIONAL
WEATHER SERVICE. USE DATA WITH CAUTION...ESPECIALLY
DEWPOINT OBSERVATIONS.

SCZ027-030-031-034>040-042>050-031200-
...SOUTHEAST SOUTH CAROLINA...

CITY           SKY/WX    TMP DP  RH WIND       PRES   REMARKS
N CHARLESTON   CLOUDY    56  51  84 E9        30.25R
WATERFRONT PRK   N/A     52 N/A N/A NE16        N/A
MOUNT PLEASANT CLOUDY    52  48  87 NE7       30.26S
PINOPOLIS      NOT AVBL
MONCKS CORNER  CLOUDY    52  48  87 E6        30.27R
SUMMERVILLE    CLOUDY    54  52  94 NE3       30.28R
BEAUFORT MCAS  CLOUDY    55  53  93 E3        30.25R
BEAUFORT ARPT  CLOUDY    55  54  94 E7        30.24R
HILTON HEAD IS NOT AVBL
WALTERBORO     CLOUDY    57  55  94 E6        30.26S
ALLENDALE      CLOUDY    55  55 100 E7        30.23S FOG

...SOUTHERN MIDLANDS AND PEE DEE...

CITY           SKY/WX    TMP DP  RH WIND       PRES   REMARKS
GEORGETOWN     NOT AVBL
KINGSTREE      NOT AVBL
ORANGEBURG     CLOUDY    54  49  83 E7        30.26R
BARNWELL       CLOUDY    55  54  94 E6        30.25R
AIKEN          CLOUDY    55  54  94 E6        30.28R
MANNING        RAIN      52  50  93 E5        30.27F
COLUMBIA       CLOUDY    55  51  86 E6        30.26R FOG
SUMTER         CLOUDY    51  47  86 E9        30.26R
FLORENCE       CLOUDY    45  35  68 E10       30.31S
MYRTLE BEACH   NOT AVBL
N MYRTLE BEACH CLOUDY    46  35  65 NE12      30.30R

$$

GAZ063-065-086>088-099>101-113>116-118-119-134>141-150-031200-
...SOUTHEAST GEORGIA...

CITY           SKY/WX    TMP DP  RH WIND       PRES   REMARKS
SAVANNAH ARPT  FOG       56  55  97 E6        30.23R VSB 1/4
HUNTER AAF     FOG       55  55 100 E2        30.21R VSB 3/4
FORT STEWART   CLOUDY    58  57  96 CALM      30.20S
STATESBORO     LGT RAIN  57  57 100 SE3       30.23R
SYLVANIA       CLOUDY    56  56 100 SE5       30.24R FOG
CLAXTON        CLOUDY    59  59 100 CALM      30.22R FOG

...CSRA...CENTRAL AND FAR SOUTHEAST GEORGIA...

CITY           SKY/WX    TMP DP  RH WIND       PRES   REMARKS
THOMSON        CLOUDY    58  58 100 CALM      30.26F
AUGUSTA-BUSH   CLOUDY    58  54  86 E7        30.23R
AUGUSTA-DANIEL CLOUDY    59  54  83 E6        30.24R
SWAINSBORO     NOT AVBL
VIDALIA        CLOUDY    61  61 100 CALM      30.22R
EASTMAN        CLOUDY    60  60 100 CALM      30.24R
HAZLEHURST     CLOUDY    61  61 100 CALM      30.20S
ALMA           FOG       54  53  97 N3        30.21S VSB 1
WAYCROSS       MOCLDY    60  60 100 CALM      30.20F FOG
JESUP          CLOUDY    61  61 100 CALM      30.22F FOG
BAXLEY         CLOUDY    59  57  94 CALM      30.21S FOG
BRUNSWICK      CLOUDY    61  59  94 CALM      30.24R
SAINT SIMONS   CLOUDY    59  57  93 NE3       30.22R

$$

SCZ027-028-034-036>038-045-046-048>050-GAZ119-141-031200-
...LAKE AND SUPPLEMENTAL COASTAL OBSERVATIONS...

STATION/POSITION TIME  TEMP    WIND        PRES    WAVE   SWELL
                       AIR SEA DIR/SP/G            HT/PER HT/PER/DIR
                 (UTC) (F)     (DEG/KT/KT) (MB)    (FT/S) (FT/S/D)
UPR LAKE MARION  NOT AVBL
WINYAH BAY       1000   47      50/ 14     1024.0
LAKE MURRAY      1100   53      60/  3/  6 1024.4R
ACE BASIN NERRS  NOT AVBL
FORT PULASKI     1000      49   80/  4/  4 1023.7F
SAPELO ISLAND    1100   55        CALM     1023.0S

$$

ANZ835-935-AMZ111-154-330-350-352-354-370-450-454-472-031200-
...C-MAN AND BUOY OBSERVATIONS...

STATION/POSITION TIME  TEMP    WIND        PRES    WAVE   SWELL
                       AIR SEA DIR/SP/G            HT/PER HT/PER/DIR
                 (UTC) (F)     (DEG/KT/KT) (MB)    (FT/S) (FT/S/D)
BUOY 41004       1050   67 68   80/ 12/ 16 1023.5R   4/ 9   3/ 9
BUOY 41008       1050   57 54  160/  4/  4 1023.2S   2/ 9   2/100/ 9
FOLLY BEACH CMAN 1100   50      40/ 19/ 22 1024.9R
CAPERS NEARSHORE NOT AVBL
FRIPP NEARSHORE  1000   50      60/ 10/ 12 1022.8R


STATION/POSITION TIME  TEMP    WIND        PRES    WAVE   SWELL
                       AIR SEA DIR/SP/G            HT/PER HT/PER/DIR
                 (UTC) (F)     (DEG/KT/KT) (MB)    (FT/S) (FT/S/D)
5E ST. MARYS GA  1021      53                N/A     3/ 9
FRYING PAN BUOY  1050   58 61   70/ 19/ 23 1025.0R   6/ 6   2/150/ 9
BUOY 41025       NOT AVBL
CAPE LOOKOUT NC  1100   42      30/ 19/ 22 1027.4R
BUOY 41002       1050   65 73   50/ 19/ 23 1025.1R   7/ 6   2/290/15
BUOY 41010       1020   72 75   50/  8/  8 1022.8R
ST AUGUSTINE FL  1100   57      10/  3/  5 1023.6R


$$



USA.gov is the U.S. government's official web portal to all federal, state and local government web resources and services.